Location: Mount Tamalpais State Park
(37.9108°N, 122.6128°W)
Time: 23:48:59
(UTC-07:00)

Cosmos 1814 Rocket - Visible Passes

Search period start: 24 July 2017 00:00
Search period end: 03 August 2017 00:00
Orbit: 745 x 788 km, 74.1° (Epoch: 24 July)

Date Brightness Start Highest point End Pass type
(mag) Time Alt. Az. Time Alt. Az. Time Alt. Az.
27 Jul 6.4 05:40:21 10° SSE 05:44:32 24° E 05:48:44 10° NE visible
28 Jul 6.8 05:04:52 10° ESE 05:07:17 13° E 05:09:42 10° ENE visible
30 Jul 5.5 05:28:44 10° SSE 05:33:39 39° ESE 05:38:35 10° NE visible
31 Jul 6.3 04:52:18 10° SSE 04:56:19 22° E 05:00:21 10° NE visible
01 Aug 6.8 04:17:06 10° ESE 04:19:05 12° E 04:21:04 10° ENE visible
02 Aug 4.5 05:17:35 10° S 05:22:51 65° ESE 05:28:08 10° NNE visible
